Lid_Strength_Index
2 2 2 2 2 2 2 1 1 2 4 3 3 4 4 4 6 7 8 8 9 11 11 10 9 11 11 11 13 11 10 8 9 12 13 13 14 12 13 11 13 14 16 16 15 17 19 8 8 13 10 7 7 7
2 2 2 2 2 2 2 2 2 2 3 4 4 3 4 3 6 6 10 6 6 10 11 9 9 9 9 9 10 10 9 8 8 11 10 11 13 12 13 16 9 15 12 14 14 14 9 7 8 7 7 7 7 7
2 2 2 2 2 2 2 2 2 2 3 3 3 3 4 3 5 6 8 8 9 10 10 10 10 7 7 7 6 11 7 6 7 6 9 10 13 11 15 14 12 10 8 12 12 10 9 8 7 7 6 7 7 6
3 2 2 2 2 2 2 2 2 2 3 3 3 3 3 3 5 5 8 7 9 10 13 11 6 7 5 6 6 6 6 5 6 7 9 10 11 8 12 11 11 10 9 11 11 9 9 7 7 7 7 7 7 7
3 3 2 2 2 2 2 2 2 2 3 3 3 3 3 3 5 5 6 7 7 10 13 12 9 8 7 6 6 6 6 6 7 9 9 10 8 9 9 9 11 8 11 13 13 10 10 9 8 8 7 7 7 8
4 3 3 2 2 2 2 2 2 3 3 3 3 3 3 3 5 7 10 7 7 8 11 14 9 9 6 6 7 7 6 6 7 8 9 8 6 8 12 13 8 7 7 9 11 8 8 7 7 7 8 7 7 8
3 3 3 2 2 2 2 2 2 2 2 3 3 3 4 4 6 9 9 7 7 7 11 13 12 7 6 7 7 7 6 7 7 8 9 9 8 7 10 13 9 9 9 8 7 8 9 8 10 7 7 7 7 8
3 3 3 3 2 2 2 2 2 2 2 3 3 4 3 4 7 9 6 6 7 9 9 13 13 10 6 9 9 5 7 7 8 9 8 8 8 8 12 8 8 9 8 8 8 7 8 7 7 7 6 7 9 10
3 3 3 3 2 2 2 2 2 2 3 3 3 5 6 8 10 8 5 6 7 9 13 12 13 13 6 9 7 7 6 10 8 9 8 8 9 12 9 9 10 9 9 9 7 7 7 7 8 8 8 8 10 11
3 2 3 3 3 2 2 2 2 3 3 3 5 8 10 8 5 5 8 10 11 10 10 13 10 12 8 9 8 8 7 10 12 10 7 10 11 7 7 8 9 9 8 7 9 9 8 8 9 8 8 8 9 11
3 3 3 2 2 1 1 2 2 3 4 6 8 9 6 4 7 9 12 12 12 13 12 11 11 13 8 11 11 8 10 9 13 11 11 12 12 8 6 7 6 6 7 7 6 7 7 8 8 9 8 8 9 11
3 2 2 1 1 1 1 2 2 5 6 6 6 6 6 9 10 12 12 11 12 13 10 11 11 10 9 8 9 9 10 9 14 9 11 14 9 7 7 7 7 8 7 7 7 7 8 7 7 8 8 8 8 10
2 2 2 2 2 1 2 2 3 3 4 5 7 10 10 11 14 14 15 13 12 10 9 9 10 9 9 8 9 9 11 13 8 12 13 11 8 7 7 7 8 8 8 7 7 7 8 8 7 8 8 7 8 10
2 2 2 2 2 1 2 3 3 4 5 9 10 13 13 13 13 12 12 10 8 8 8 9 10 11 9 10 9 11 9 9 13 15 14 10 9 8 8 7 8 8 8 8 8 8 8 8 8 7 8 8 8 10
3 3 2 2 1 2 3 3 3 5 7 10 10 13 13 10 9 9 8 9 8 7 8 9 9 9 10 10 10 10 12 13 13 13 10 9 9 9 9 8 8 8 8 9 8 8 8 8 8 9 8 9 9 9
3 3 3 1 1 3 3 3 5 6 8 9 10 12 10 10 10 9 9 9 7 7 9 9 10 12 11 11 12 12 14 15 12 11 9 9 9 9 9 9 8 8 8 8 8 8 8 8 8 9 9 9 10 9
3 3 2 2 3 3 4 7 7 9 9 10 11 9 9 9 9 8 7 7 6 9 12 11 12 13 10 13 14 11 13 11 10 9 9 9 10 10 9 9 9 8 8 8 8 8 8 7 7 9 10 10 10 9
3 2 2 3 4 5 7 7 8 9 11 10 11 9 8 8 8 8 7 7 8 9 10 11 9 12 13 14 13 11 10 9 9 9 9 9 9 9 8 9 9 9 9 8 8 8 8 8 9 9 9 9 10 9
3 3 4 4 5 7 9 9 8 11 11 9 9 8 7 8 7 7 7 7 7 7 8 10 12 13 11 9 10 10 9 9 9 9 9 9 9 8 8 8 8 9 9 9 9 9 9 8 9 9 9 9 10 10
3 4 4 4 4 8 10 10 7 10 11 9 8 9 8 8 7 7 7 7 8 9 10 11 11 9 9 9 8 9 9 9 9 10 10 9 8 8 9 9 9 8 9 9 9 9 9 9 8 8 9 9 10 11
5 5 4 5 6 6 8 9 10 9 8 9 8 8 9 8 9 8 8 7 9 10 11 9 9 8 8 8 8 8 8 8 9 10 10 11 10 9 9 9 9 9 10 10 10 10 10 10 9 8 8 9 9 9
6 5 7 6 8 8 9 7 8 7 8 8 8 8 10 10 10 9 7 9 10 9 9 8 8 8 8 8 8 8 8 9 9 10 10 10 10 10 10 10 10 11 10 10 10 10 10 10 10 9 9 9 8 9
5 6 8 8 10 11 11 7 10 9 10 10 9 10 10 9 8 7 10 9 8 7 8 8 7 7 8 8 8 8 7 8 9 10 9 10 9 10 10 10 10 11 11 10 10 10 10 10 9 9 9 9 9 9
5 8 10 10 10 11 9 10 9 9 9 10 11 11 10 9 8 9 11 10 8 7 8 7 8 8 8 8 10 9 9 8 9 9 9 9 10 10 9 10 10 10 10 10 10 10 10 10 10 9 9 9 10 9
11 11 10 12 9 10 11 11 10 10 11 10 11 11 10 8 11 11 11 9 8 8 8 8 8 8 9 9 9 9 8 9 9 10 10 9 10 10 10 10 11 11 10 11 11 11 11 10 10 10 9 9 10 10
13 11 12 11 10 11 10 12 11 11 10 11 10 9 8 10 12 12 9 7 8 8 8 8 8 9 9 8 9 10 10 8 8 10 10 9 10 11 11 11 12 12 10 10 11 10 11 11 10 9 9 9 10 9
13 12 10 7 8 8 9 9 9 10 11 12 10 10 10 13 13 10 7 6 6 6 6 6 7 7 8 9 8 8 8 8 8 9 9 9 10 10 10 12 13 12 9 9 10 10 10 10 10 9 9 8 8 9
10 9 11 10 9 9 10 11 11 12 11 9 9 11 12 12 12 9 7 6 5 5 6 6 6 7 7 8 8 9 8 8 8 8 9 9 9 9 9 9 9 11 9 9 9 9 9 9 9 8 9 9 9 9
10 9 9 11 10 10 10 11 10 9 8 8 10 12 12 10 8 7 7 6 5 6 7 8 8 7 8 8 8 8 8 8 9 10 11 11 11 10 9 9 9 8 8 8 11 9 9 9 8 8 8 8 8 8
10 8 10 11 11 12 10 9 10 9 8 9 9 10 9 9 9 8 7 7 7 7 7 7 8 8 9 9 9 9 9 9 9 10 10 11 10 9 9 9 9 8 8 7 8 8 8 8 8 8 9 9 10 10
9 9 10 11 12 10 9 8 8 8 8 9 9 10 11 10 9 9 10 9 8 7 7 8 8 8 8 8 9 10 11 10 10 10 10 9 9 9 9 8 8 7 7 7 8 9 9 9 10 10 11 11 11 11
10 10 11 13 13 10 9 10 10 11 10 11 11 10 10 11 13 11 11 10 8 8 10 8 9 9 8 9 10 10 11 11 11 11 11 10 10 9 8 8 8 7 7 7 8 9 10 11 11 11 12 12 12 12
10 11 11 12 12 12 10 11 11 12 11 12 12 11 12 12 14 12 10 10 9 8 9 9 8 8 8 8 9 10 10 11 11 11 11 11 12 10 9 9 9 8 7 8 9 9 10 12 12 12 12 12 13 13